Previsão horária em Almada

Hoje, 14 Junho, Segunda-feira

Tempo Temperatura Precipitação Vento Pressão Humidade
00:00 +19°C° 0 mm 1 m/s 761 mmHg 84%
01:00 +19°C° 0 mm 1 m/s 761 mmHg 84%
02:00 +19°C° 0 mm 1 m/s 761 mmHg 83%
03:00 +19°C° 0 mm 1 m/s 761 mmHg 83%
04:00 +19°C° 0 mm 1 m/s 761 mmHg 82%
05:00 +19°C° 0 mm 1 m/s 761 mmHg 83%
06:00 +22°C° 0 mm 1 m/s 761 mmHg 74%
07:00 +24°C° 0 mm 1 m/s 762 mmHg 66%
08:00 +26°C° 0 mm 1 m/s 762 mmHg 57%
09:00 +27°C° 0 mm 2 m/s 762 mmHg 52%
10:00 +29°C° 0 mm 2 m/s 762 mmHg 48%
11:00 +30°C° 0 mm 3 m/s 762 mmHg 43%
12:00 +31°C° 0 mm 3 m/s 761 mmHg 42%
13:00 +32°C° 0 mm 4 m/s 761 mmHg 41%
14:00 +32°C° 0 mm 5 m/s 760 mmHg 40%
15:00 +30°C° 0 mm 5 m/s 760 mmHg 43%
16:00 +28°C° 0 mm 6 m/s 760 mmHg 47%
17:00 +27°C° 0 mm 7 m/s 759 mmHg 51%
18:00 +24°C° 0 mm 6 m/s 760 mmHg 59%
19:00 +22°C° 0 mm 5 m/s 760 mmHg 66%
20:00 +20°C° 0 mm 5 m/s 760 mmHg 74%
21:00 +20°C° 0 mm 3 m/s 760 mmHg 75%
22:00 +20°C° 0 mm 2 m/s 759 mmHg 77%
23:00 +20°C° 0 mm 1 m/s 759 mmHg 78%

Amanhã, 15 Junho, Terça-feira

Tempo Temperatura Precipitação Vento Pressão Humidade
00:00 +20°C° 0 mm 1 m/s 759 mmHg 78%
01:00 +19°C° 0 mm 2 m/s 758 mmHg 79%
02:00 +18°C° 0 mm 2 m/s 758 mmHg 79%
03:00 +19°C° 0 mm 2 m/s 758 mmHg 80%
04:00 +19°C° 0 mm 2 m/s 758 mmHg 80%
05:00 +19°C° 0 mm 2 m/s 758 mmHg 80%
06:00 +21°C° 0 mm 2 m/s 758 mmHg 71%
07:00 +24°C° 0 mm 1 m/s 758 mmHg 61%
08:00 +27°C° 0 mm 1 m/s 758 mmHg 52%
09:00 +28°C° 0 mm 2 m/s 758 mmHg 47%
10:00 +30°C° 0 mm 2 m/s 758 mmHg 43%
11:00 +31°C° 0 mm 3 m/s 758 mmHg 38%
12:00 +31°C° 0 mm 3 m/s 757 mmHg 38%
13:00 +32°C° 0 mm 4 m/s 757 mmHg 38%
14:00 +32°C° 0 mm 4 m/s 756 mmHg 38%
15:00 +29°C° 0 mm 4 m/s 756 mmHg 45%
16:00 +28°C° 0 mm 5 m/s 756 mmHg 51%
17:00 +26°C° 0 mm 5 m/s 756 mmHg 58%
18:00 +23°C° 0 mm 4 m/s 756 mmHg 67%
19:00 +21°C° 0 mm 3 m/s 756 mmHg 77%
20:00 +19°C° 0 mm 2 m/s 757 mmHg 86%
21:00 +19°C° 0 mm 2 m/s 757 mmHg 88%
22:00 +19°C° 0 mm 2 m/s 757 mmHg 89%
23:00 +18°C° 0 mm 3 m/s 756 mmHg 90%

Depois de amanhã, 16 Junho, Quarta-feira

Tempo Temperatura Precipitação Vento Pressão Humidade
00:00 +18°C° 0 mm 3 m/s 756 mmHg 91%
01:00 +18°C° 0 mm 3 m/s 756 mmHg 92%
02:00 +18°C° 0 mm 3 m/s 756 mmHg 94%
03:00 +18°C° 0 mm 3 m/s 756 mmHg 91%
04:00 +18°C° 0 mm 3 m/s 756 mmHg 88%
05:00 +18°C° 0 mm 3 m/s 756 mmHg 85%
06:00 +19°C° 0 mm 3 m/s 756 mmHg 80%
07:00 +20°C° 0 mm 3 m/s 757 mmHg 74%
08:00 +21°C° 0 mm 3 m/s 757 mmHg 69%
09:00 +22°C° 0 mm 3 m/s 757 mmHg 65%
10:00 +23°C° 0 mm 4 m/s 757 mmHg 61%
11:00 +25°C° 0 mm 4 m/s 757 mmHg 57%
12:00 +25°C° 0 mm 4 m/s 756 mmHg 56%
13:00 +26°C° 0 mm 5 m/s 756 mmHg 55%
14:00 +26°C° 0 mm 5 m/s 756 mmHg 54%
15:00 +25°C° 0 mm 5 m/s 756 mmHg 58%
16:00 +23°C° 0 mm 5 m/s 756 mmHg 61%
17:00 +22°C° 0 mm 5 m/s 756 mmHg 65%
18:00 +21°C° 0 mm 4 m/s 756 mmHg 71%
19:00 +20°C° 0 mm 4 m/s 756 mmHg 78%
20:00 +18°C° 0 mm 3 m/s 757 mmHg 85%
21:00 +18°C° 0 mm 3 m/s 757 mmHg 86%
22:00 +18°C° 0 mm 3 m/s 756 mmHg 87%
23:00 +18°C° 0 mm 3 m/s 756 mmHg 88%

17 Junho, Quinta-feira

Tempo Temperatura Precipitação Vento Pressão Humidade
00:00 +18°C° 0 mm 3 m/s 756 mmHg 88%
01:00 +18°C° 0 mm 4 m/s 756 mmHg 89%
02:00 +18°C° 0 mm 4 m/s 756 mmHg 89%
03:00 +17°C° 0.1 mm 5 m/s 756 mmHg 89%
04:00 +17°C° 0.1 mm 5 m/s 757 mmHg 89%
05:00 +17°C° 0.1 mm 6 m/s 757 mmHg 88%
06:00 +17°C° 0 mm 6 m/s 757 mmHg 86%
07:00 +18°C° 0 mm 7 m/s 757 mmHg 84%
08:00 +18°C° 0 mm 7 m/s 758 mmHg 81%
09:00 +18°C° 0 mm 7 m/s 758 mmHg 78%
10:00 +18°C° 0 mm 7 m/s 758 mmHg 76%
11:00 +18°C° 0 mm 7 m/s 759 mmHg 73%
12:00 +18°C° 0 mm 7 m/s 759 mmHg 71%
13:00 +18°C° 0 mm 7 m/s 759 mmHg 70%
14:00 +20°C° 0 mm 7 m/s 759 mmHg 69%
15:00 +18°C° 0 mm 7 m/s 759 mmHg 69%
16:00 +18°C° 0 mm 7 m/s 759 mmHg 70%
17:00 +17°C° 0 mm 7 m/s 759 mmHg 70%
18:00 +16°C° 0 mm 7 m/s 759 mmHg 72%
19:00 +16°C° 0 mm 6 m/s 759 mmHg 74%
20:00 +15°C° 0 mm 6 m/s 760 mmHg 76%
21:00 +15°C° 0 mm 5 m/s 759 mmHg 79%
22:00 +14°C° 0 mm 5 m/s 759 mmHg 83%
23:00 +13°C° 0 mm 4 m/s 759 mmHg 86%

18 Junho, Sexta-feira

Tempo Temperatura Precipitação Vento Pressão Humidade
00:00 +13°C° 0 mm 4 m/s 759 mmHg 86%
01:00 +13°C° 0 mm 4 m/s 759 mmHg 85%
02:00 +13°C° 0 mm 4 m/s 758 mmHg 85%
03:00 +13°C° 0 mm 4 m/s 758 mmHg 85%
04:00 +13°C° 0 mm 4 m/s 758 mmHg 86%
05:00 +14°C° 0 mm 4 m/s 758 mmHg 86%
06:00 +15°C° 0.3 mm 4 m/s 758 mmHg 82%
07:00 +16°C° 0.3 mm 5 m/s 758 mmHg 78%
08:00 +17°C° 0.3 mm 5 m/s 758 mmHg 74%
09:00 +17°C° 1 mm 5 m/s 758 mmHg 73%
10:00 +19°C° 1 mm 6 m/s 758 mmHg 72%
11:00 +19°C° 1 mm 6 m/s 758 mmHg 71%
12:00 +20°C° 0.7 mm 6 m/s 758 mmHg 69%
13:00 +20°C° 0.7 mm 7 m/s 758 mmHg 68%
14:00 +20°C° 0.7 mm 7 m/s 758 mmHg 66%
15:00 +20°C° 0.2 mm 6 m/s 758 mmHg 69%
16:00 +19°C° 0.2 mm 6 m/s 758 mmHg 71%
17:00 +19°C° 0.2 mm 5 m/s 758 mmHg 74%
18:00 +18°C° 0.1 mm 4 m/s 758 mmHg 79%
19:00 +17°C° 0.1 mm 4 m/s 758 mmHg 85%
20:00 +16°C° 0.1 mm 3 m/s 758 mmHg 91%
21:00 +16°C° 0.1 mm 3 m/s 758 mmHg 91%
22:00 +15°C° 0.1 mm 4 m/s 758 mmHg 92%
23:00 +15°C° 0.1 mm 4 m/s 758 mmHg 93%

19 Junho, Sábado

Tempo Temperatura Precipitação Vento Pressão Humidade
00:00 +15°C° 0.1 mm 4 m/s 758 mmHg 92%
01:00 +15°C° 0.1 mm 4 m/s 758 mmHg 91%
02:00 +15°C° 0.1 mm 5 m/s 758 mmHg 90%
03:00 +15°C° 0.1 mm 5 m/s 758 mmHg 90%
04:00 +15°C° 0.1 mm 4 m/s 759 mmHg 89%
05:00 +15°C° 0.1 mm 4 m/s 759 mmHg 89%
06:00 +16°C° 0.1 mm 5 m/s 759 mmHg 83%
07:00 +17°C° 0.1 mm 5 m/s 759 mmHg 77%
08:00 +19°C° 0.1 mm 6 m/s 759 mmHg 72%
09:00 +19°C° 0 mm 6 m/s 760 mmHg 68%
10:00 +20°C° 0 mm 6 m/s 760 mmHg 64%
11:00 +20°C° 0 mm 5 m/s 760 mmHg 60%
12:00 +20°C° 0 mm 5 m/s 760 mmHg 58%
13:00 +20°C° 0 mm 5 m/s 759 mmHg 56%
14:00 +21°C° 0 mm 5 m/s 759 mmHg 55%
15:00 +20°C° 0 mm 5 m/s 759 mmHg 54%
16:00 +20°C° 0 mm 5 m/s 759 mmHg 54%
17:00 +20°C° 0 mm 6 m/s 759 mmHg 54%
18:00 +19°C° 0 mm 5 m/s 759 mmHg 57%
19:00 +17°C° 0 mm 5 m/s 760 mmHg 59%
20:00 +17°C° 0 mm 4 m/s 760 mmHg 62%
21:00 +15°C° 0 mm 4 m/s 760 mmHg 67%
22:00 +15°C° 0 mm 4 m/s 760 mmHg 71%
23:00 +14°C° 0 mm 3 m/s 760 mmHg 76%
Mostrar mais